Location: Ballingbuur
(53.0000°N, 5.7667°E)
Time: 06:58:07
(UTC+00:00)

Meteor 2-3 Rocket - Pass Details

Date: 29 November 2020
Orbit: 842 x 885 km, 81.2° (Epoch: 23 January)

Event Time Altitude Azimuth Distance (km) Brightness Sun altitude
Rises 05:08:03 0° 206° (SSW) 3,448 6.7 -19.6°
Reaches altitude 10° 05:10:31 10° 211° (SSW) 2,520 6.0 -19.2°
Maximum altitude 05:16:09 55° 289° (WNW) 1,053 3.8 -18.4°
Drops below altitude 10° 05:21:52 10° 7° (N) 2,558 6.1 -17.6°
Sets 05:24:24 0° 12° (NNE) 3,504 6.9 -17.2°
